Meteo Giornale » Osservazioni meteo India » Rajiv Gandhi Inl
ore: 18:30 - Osservazioni Meteo Rajiv Gandhi Inl
Lat. 17° 14' N Lon. 78° 26' E Alt. 1 metri s.l.m.
29 °C
Foschia
Temp. 24 Ore
22 °C
31 °C
Nord/NOvest
11.1 Km/h
Dew point 20 °C
Umidità 58 %
Visibilità 5 Km
Il sole sorge alle ore 06:02
Il sole tramonta alle ore 18:30
| Data e Ora | Cielo e Fenomeni | T °C | DP °C | Um. % | Pres. hPa | Vis. km | Vento km/h | |
|---|---|---|---|---|---|---|---|---|
| Oggi h: 18:30 | Foschia | 29 | 20 | 58 | 1011 | 5 | N/NO 11.1 | |
| Oggi h: 18:00 | Foschia | 29 | 19 | 54 | 1011 | 5 | NO 14.8 | |
| Oggi h: 17:30 | Foschia | 30 | 19 | 51 | 1010 | 5 | NO 18.5 | |
| Oggi h: 17:00 | Foschia | 30 | 19 | 51 | 1010 | 5 | NO 22.2 | |
| Oggi h: 16:30 | Foschia | 30 | 19 | 51 | 1010 | 5 | NO 22.2 | |
| Oggi h: 16:00 | Foschia | 30 | 19 | 51 | 1010 | 5 | NO 18.5 | |
| Oggi h: 15:30 | Foschia | 30 | 19 | 51 | 1010 | 5 | NO 22.2 | |
| Oggi h: 15:00 | Foschia | 30 | 19 | 51 | 1010 | 5 | O/NO 20.3 | |
| Oggi h: 14:30 | Foschia | 31 | 19 | 48 | 1011 | 5 | NO 22.2 | |
| Oggi h: 14:00 | Foschia | 30 | 19 | 51 | 1011 | 5 | NO 18.5 | |
| Oggi h: 13:30 | Foschia | 29 | 19 | 54 | 1011 | 5 | NO 22.2 | |
| Oggi h: 13:00 | Foschia | 30 | 19 | 51 | 1012 | 5 | O/NO 22.2 | |
| Oggi h: 12:30 | Foschia | 29 | 20 | 58 | 1012 | 5 | N/NO 22.2 | |
| Oggi h: 12:00 | Foschia | 28 | 20 | 61 | 1013 | 5 | N/NO 22.2 | |
| Oggi h: 11:30 | Foschia | 28 | 20 | 61 | 1013 | 5 | NO 22.2 | |
| Oggi h: 11:00 | Foschia | 28 | 19 | 58 | 1013 | 5 | NO 24 | |
| Oggi h: 10:30 | Foschia | 28 | 20 | 61 | 1013 | 5 | NO 25.9 | |
| Oggi h: 10:00 | Foschia | 28 | 19 | 58 | 1013 | 5 | O/NO 24 | |
| Oggi h: 09:30 | Foschia | 26 | 20 | 69 | 1013 | 5 | O/NO 25.9 | |
| Oggi h: 09:00 | Foschia | 26 | 20 | 69 | 1013 | 5 | O/NO 22.2 | |
| Oggi h: 08:30 | Foschia | 25 | 21 | 78 | 1013 | 5 | O 22.2 | |
| Oggi h: 08:00 | Foschia | 25 | 21 | 78 | 1013 | 5 | O 20.3 | |
| Oggi h: 07:30 | Foschia | 24 | 21 | 83 | 1012 | 5 | O 20.3 | |
| Oggi h: 07:00 | Foschia | 23 | 21 | 88 | 1012 | 5 | O 18.5 | |
| Oggi h: 06:30 | Foschia | 23 | 21 | 88 | 1012 | 5 | O 18.5 | |
| Oggi h: 06:00 | Foschia | 22 | 21 | 94 | 1011 | 5 | O 14.8 | |
| Oggi h: 05:30 | Foschia | 22 | 21 | 94 | 1011 | 5 | O 14.8 | |
| Oggi h: 05:00 | Foschia | 23 | 21 | 88 | 1010 | 5 | O 18.5 | |
| Oggi h: 04:30 | Foschia | 23 | 21 | 88 | 1010 | 5 | O 18.5 | |
| Oggi h: 04:00 | Foschia | 24 | 21 | 83 | 1010 | 5 | O 22.2 | |
| Oggi h: 03:30 | Foschia | 24 | 21 | 83 | 1010 | 5 | O 22.2 | |
| Oggi h: 03:00 | Foschia | 24 | 21 | 83 | 1010 | 5 | O 22.2 | |
| Oggi h: 02:30 | Foschia | 24 | 21 | 83 | 1010 | 5 | O 24 | |
| Oggi h: 02:00 | Foschia | 25 | 21 | 78 | 1010 | 5 | O 24 | |
| Oggi h: 01:30 | Foschia | 25 | 21 | 78 | 1010 | 5 | O 16.7 | |
| Oggi h: 01:00 | Foschia | 24 | 21 | 83 | 1010 | 5 | O 11.1 | |
| Oggi h: 00:30 | Foschia | 25 | 22 | 83 | 1011 | 5 | O 11.1 | |
| Oggi h: 00:00 | Foschia | 24 | 22 | 88 | 1011 | 5 | O 9.3 | |
| Ieri h: 23:30 | Foschia | 25 | 22 | 83 | 1011 | 5 | SO 9.3 | |
| Ieri h: 23:00 | Foschia | 24 | 22 | 88 | 1011 | 5 | S/SO 9.3 | |
| Ieri h: 22:30 | Foschia | 25 | 22 | 83 | 1012 | 5 | SO 9.3 | |
| Ieri h: 22:00 | Foschia | 25 | 22 | 83 | 1012 | 5 | SO 9.3 | |
| Ieri h: 21:30 | Foschia | 25 | 22 | 83 | 1012 | 5 | SO 9.3 | |
| Ieri h: 21:00 | Foschia | 25 | 22 | 83 | 1011 | 5 | SO 9.3 | |
| Ieri h: 20:30 | Foschia | 25 | 22 | 83 | 1011 | 5 | O/SO 9.3 | |
| Ieri h: 20:00 | Foschia | 26 | 21 | 73 | 1011 | 5 | NO 7.4 | |
| Ieri h: 19:30 | Foschia | 26 | 21 | 73 | 1011 | 5 | O/NO 9.3 | |



